Location: Tamazert
(32.6352°N, 5.2072°W)
Time: 16:34:40
(UTC+00:00)

DNEPR-1 R/B - Pass Details

Date: 22 May 2022
Orbit: 576 x 1345 km, 64.6° (Epoch: 06 July)

Event Time Altitude Azimuth Distance (km) Brightness Sun altitude
Exits shadow 03:54:17 23° 196° (SSW) 1,236 4.6 -15.9°
Maximum altitude 03:56:45 70° 116° (ESE) 618 3.6 -15.5°
Drops below altitude 10° 04:01:02 10° 33° (NNE) 1,960 7.3 -14.8°
Sets 04:03:23 0° 31° (NNE) 2,931 8.4 -14.4°
